Location: Unspecified
(33.9360°N, 83.4200°W)
Time: 03:40:37
(UTC-04:00)

Daily predictions for brighter satellites

Satellite Brightness Start Highest point End
(mag) Time Altitude Azimuth Time Altitude Azimuth Time Altitude Azimuth
Lacrosse 5 4.2 00:01:08 10° NW 00:02:40 20° NW 00:02:40 20° NW
Cosmos 2369 Rocket 4.0 00:04:57 10° NNW 00:07:34 27° NW 00:07:34 27° NW
ATLAS 5 CENTAUR R/B 4.0 00:19:05 10° NW 00:22:00 30° NW 00:22:00 30° NW
Cosmos 2082 Rocket 4.5 02:09:34 19° NNE 02:09:34 19° NNE 02:11:05 10° NNE
CZ-2D R/B 4.0 03:00:35 10° NNE 03:03:15 26° NE 03:03:15 26° NE
USA 238 DEB 4.3 03:12:04 49° ENE 03:12:04 49° ENE 03:17:14 10° NE
USA 238 4.4 03:12:10 49° ENE 03:12:10 49° ENE 03:17:20 10° NE
SL-16 R/B 3.4 03:11:15 45° NE 03:11:15 45° NE 03:16:36 10° N
Resurs 1-4 Rocket 3.5 03:22:22 10° NNE 03:25:27 36° NNE 03:25:27 36° NNE
ARIANE 5 R/B 3.8 03:29:54 10° NNE 03:33:28 37° ENE 03:33:28 37° ENE
Cosmos 1980 Rocket 4.0 03:33:10 10° NNW 03:35:04 22° NNW 03:35:04 22° NNW
NOSS 3-2 (C) 4.1 03:48:15 44° E 03:48:15 44° E 03:53:42 10° NE
ATLAS 3B R/B 2.7 03:48:15 81° NNW 03:48:15 81° NNW 03:54:58 10° NNE
Cosmos 2082 Rocket 4.4 03:51:24 14° NW 03:51:24 14° NW 03:53:10 10° NNW
Cosmos 841 Rocket 4.3 03:54:06 47° NNE 03:54:06 47° NNE 03:57:47 10° NNE
Cosmos 540 Rocket 4.5 03:53:58 41° ENE 03:53:58 41° ENE 03:58:06 10° NNE
SL-16 R/B 3.0 03:51:59 10° N 03:57:28 48° ENE 03:59:31 33° ESE
NOSS 3-2 (A) 3.4 04:02:17 77° NE 04:02:17 77° NE 04:08:10 10° NNE
Meteor 1-21 4.3 04:05:21 71° NNE 04:05:21 71° NNE 04:10:20 10° N
CENTAUR R/B 4.0 04:03:27 21° SE 04:05:01 23° ESE 04:09:50 10° ENE
IRS-1D 4.3 04:04:08 10° N 04:07:56 44° NNW 04:07:56 44° NNW
Cosmos 2322 Rocket 2.6 04:04:31 10° NNW 04:10:04 58° ENE 04:12:13 36° SE
Cosmos 2266 Rocket 4.3 04:10:38 10° N 04:16:41 60° E 04:19:33 32° SSE
USA 215 4.4 04:15:12 10° ENE 04:20:58 33° SE 04:23:06 27° SSE
Timation 2 Rocket 4.5 04:21:51 41° NW 04:21:51 41° NW 04:27:06 10° N
UNKNOWN OBJECT B 4.3 04:18:37 10° NNE 04:20:50 33° NNE 04:20:50 33° NNE
Cosmos 1833 4.3 04:22:40 62° SSE 04:23:23 69° ESE 04:29:09 10° NNE
Cosmos 1602 Rocket 4.0 04:26:34 58° ENE 04:26:34 58° ENE 04:30:22 10° NNE
Cosmos 292 Rocket 4.5 04:27:54 45° NNW 04:27:54 45° NNW 04:31:36 10° N
Cosmos 1707 4.3 04:26:45 31° E 04:26:58 31° E 04:30:26 10° NNE
Aureole 2 Rocket 4.5 04:29:26 10° N 04:32:37 28° ENE 04:33:55 22° ESE
Cosmos 1626 Rocket 3.8 04:37:26 62° N 04:37:26 62° N 04:41:06 10° N
Cosmos 1655 Rocket 4.5 04:31:53 10° NNW 04:37:24 42° W 04:37:24 42° W
ERBS 4.2 04:39:43 26° N 04:39:43 26° N 04:41:32 10° NNE
ADEOS 3.4 04:33:36 10° N 04:38:48 73° WNW 04:39:10 70° WSW
SJ 16-02 2.2 04:35:35 10° N 04:39:53 49° ENE 04:43:39 13° SE
SEDSat Delta rocket 3.9 04:41:19 54° SSW 04:41:32 54° SSW 04:47:59 10° ESE
ADEOS II 2.1 04:39:34 10° NNE 04:44:50 76° ESE 04:46:33 44° S
CZ-2D R/B 3.7 04:41:19 10° NNW 04:44:35 21° NW 04:44:35 21° NW
Helios 1A Rocket 4.1 04:41:32 10° N 04:44:18 33° NW 04:44:18 33° NW
SL-16 R/B 4.0 04:56:21 20° WNW 04:56:21 20° WNW 04:59:16 10° NW
Cosmos 1125 Rocket 3.7 04:56:42 10° NNW 05:02:00 75° ENE 05:07:15 10° SSE
CZ-4B R/B 4.4 05:02:08 10° NNE 05:05:47 33° E 05:09:03 11° SSE
Resurs 1-4 Rocket 4.1 05:04:31 10° NW 05:06:32 13° WNW 05:06:32 13° WNW
Cosmos 372 Rocket 3.9 05:01:44 10° NNW 05:06:58 90° ENE 05:12:06 10° SSE
Cosmos 1733 3.7 05:08:13 10° NNW 05:11:30 42° WNW 05:11:30 42° WNW
BREEZE-M DEB (TANK) 3.5 05:12:32 21° NNW 05:12:32 21° NNW 05:13:55 10° NNE
ARIANE 5 R/B 4.1 05:10:08 10° NNW 05:13:36 18° WNW 05:13:48 18° WNW
Cosmos 1400 Rocket 4.2 05:11:59 10° SSE 05:15:37 38° E 05:19:19 10° NNE
Cosmos 1953 2.7 05:15:11 10° NNW 05:19:01 41° W 05:19:21 41° WSW
Cosmos 2360 Rocket 2.1 05:14:39 10° NNW 05:20:18 83° WSW 05:25:55 10° SSE
Cosmos 1825 Rocket 3.4 05:24:36 23° SSW 05:27:14 73° W 05:31:34 10° N
Cosmos 2219 3.4 05:26:37 12° S 05:31:54 72° ESE 05:37:37 10° NNE
Cosmos 44 Rocket 4.5 05:27:58 10° WNW 05:31:30 24° W 05:31:30 24° W
Cosmos 1553 Rocket 4.0 05:26:15 10° S 05:32:39 89° WNW 05:39:05 10° N
Delta 2 Rocket 4.2 05:32:08 19° W 05:36:24 75° N 05:42:02 10° E
ATLAS CENTAUR R/B 1.6 05:33:43 10° NW 05:38:13 67° WSW 05:42:58 10° SSE
ATLAS 5 CENTAUR R/B 3.7 05:31:08 19° WSW 05:39:09 31° SSW 05:44:12 10° SE
ATLAS 3B R/B 4.5 05:35:30 11° WNW 05:39:34 17° NW 05:43:54 10° N
SL-16 R/B 3.5 05:37:15 10° WNW 05:41:06 19° W 05:41:13 19° WSW
MOS 1-B 4.3 05:38:26 10° N 05:44:15 75° WNW 05:50:02 10° SSW
Cosmos 2227 Rocket 3.8 05:39:22 10° SSE 05:44:22 34° ESE 05:49:23 10° NE
Cosmos 2219 Rocket 3.6 05:39:26 10° N 05:44:43 41° ENE 05:49:56 10° SE
PSLV R/B 3.7 05:40:58 10° N 05:45:01 49° WNW 05:48:13 15° SW
Cosmos 2297 Rocket 4.0 05:41:37 10° SSE 05:46:30 31° ESE 05:51:24 10° NE
Meteor 2-5 Rocket 3.7 05:42:05 10° SSW 05:47:31 59° W 05:53:03 10° N
Cosmos 2333 Rocket 3.8 05:42:44 10° N 05:48:00 38° ENE 05:53:16 10° SE
Okean O Rocket 2.0 05:44:00 10° NNE 05:48:18 63° E 05:52:35 10° S
Cosmos 2333 4.4 05:45:21 10° NNW 05:50:58 75° ENE 05:56:36 10° SSE
COSMOS 2428 3.0 05:47:29 10° NNW 05:53:10 75° ENE 05:58:48 10° SSE
Cosmos 2322 Rocket 3.7 05:50:28 10° WNW 05:53:30 15° W 05:53:51 15° WSW
CENTAUR R/B 2.9 05:50:39 16° WSW 05:55:06 46° NW 06:01:29 10° NNE
Cosmos 1953 Rocket 3.8 05:51:41 10° SSW 05:56:00 48° W 06:00:19 10° N
CRYOSAT 2 4.3 05:51:59 10° S 05:56:47 63° W 06:01:36 10° NNW
Cosmos 1538 Rocket 3.9 05:52:13 10° SSW 05:57:22 75° WNW 06:02:32 10° NNE
Cosmos 1470 4.5 05:57:23 10° NW 05:59:41 15° W 06:00:33 14° WSW
Meteor 1-24 Rocket 3.5 05:54:29 10° SSW 05:59:46 73° W 06:05:07 10° N
In-Cosmos 22 4.2 05:58:21 10° SSW 06:03:44 60° W 06:09:02 10° N
USA 215 3.5 05:57:42 10° NE 06:04:04 58° NW 06:10:26 10° WSW
Meteor 1-16 Rocket 4.4 05:59:45 10° NNW 06:05:02 46° W 06:10:08 10° SSW
CZ-4B R/B 3.9 06:02:59 10° NNE 06:06:56 90° WSW 06:11:03 10° SSW
Aureole 2 Rocket 4.4 06:05:44 10° WNW 06:06:57 12° W 06:06:57 12° W
Cosmos 1674 2.7 06:06:54 10° S 06:10:41 87° E 06:14:28 10° N
Cosmos 2084 3.4 06:06:19 10° SSW 06:10:42 82° WNW 06:14:51 10° NNE
Meteor 1-28 Rocket 3.1 06:08:27 10° S 06:12:07 85° WSW 06:15:50 10° NNW
Meteor PRIRODA 3.7 06:10:35 10° N 06:14:15 65° WNW 06:17:56 10° SSW
Cosmos 1726 4.1 06:11:11 10° NNE 06:14:32 33° E 06:17:51 10° SE
Atlas Centaur 2 4.0 06:10:02 10° SW 06:17:42 39° SSE 06:25:17 10° E
SJ 16-02 3.3 06:16:51 10° W 06:17:56 11° W 06:19:00 10° WSW
Cosmos 1680 Rocket 4.4 06:13:35 10° S 06:18:40 52° ESE 06:23:44 10° NNE
Cosmos 1745 Rocket 4.1 06:13:08 10° NNW 06:19:13 60° W 06:25:23 10° S
S3M 4.4 06:13:59 10° SSW 06:19:40 40° W 06:25:23 10° N
Cosmos 1908 3.6 06:15:49 10° N 06:19:42 71° E 06:23:33 10° SSE
CZ-4B R/B 3.2 06:17:44 10° N 06:23:12 69° WNW 06:28:33 10° SSW
ADEOS II 4.0 06:22:13 10° NW 06:23:50 11° WNW 06:25:28 10° W
